When you browse on this site, cookies collect data to enhance your experience and personalize the content and advertising you see.
Visit our Privacy Policy to learn more. By continuing to use the site, you agree to this use of cookies and data.
  • In Spain
  • List of Countries
  • For 7 days
  • Water Temperature
  • Weather Map
  • Weather Widgets
  • user-avatar
    Login

    Hourly Weather Trydent i Bolzano

    Today, 29 May, Friday

    Time Temperature Precipitation Wind Pressure Humidity
    00:00 +10°C° 0 mm 2 mps 741 mmHg 86%
    01:00 +10°C° 0 mm 2 mps 741 mmHg 86%
    02:00 +9°C° 0 mm 2 mps 741 mmHg 86%
    03:00 +9°C° 0 mm 2 mps 741 mmHg 85%
    04:00 +9°C° 0 mm 2 mps 741 mmHg 85%
    05:00 +10°C° 0 mm 2 mps 741 mmHg 78%
    06:00 +13°C° 0 mm 1 mps 741 mmHg 72%
    07:00 +15°C° 0 mm 1 mps 741 mmHg 67%
    08:00 +18°C° 0 mm 1 mps 741 mmHg 57%
    09:00 +20°C° 0 mm 1 mps 740 mmHg 47%
    10:00 +22°C° 0 mm 1 mps 740 mmHg 37%
    11:00 +22°C° 0.1 mm 1 mps 740 mmHg 36%
    12:00 +23°C° 0.1 mm 1 mps 740 mmHg 35%
    13:00 +24°C° 0 mm 1 mps 740 mmHg 34%
    14:00 +23°C° 0.1 mm 2 mps 739 mmHg 36%
    15:00 +23°C° 0.1 mm 2 mps 738 mmHg 37%
    16:00 +23°C° 0.1 mm 2 mps 738 mmHg 39%
    17:00 +20°C° 0.1 mm 2 mps 737 mmHg 49%
    18:00 +20°C° 0.1 mm 1 mps 737 mmHg 59%
    19:00 +18°C° 0.1 mm 1 mps 737 mmHg 70%
    20:00 +16°C° 0.1 mm 1 mps 738 mmHg 75%
    21:00 +14°C° 0.1 mm 1 mps 738 mmHg 81%
    22:00 +12°C° 0.1 mm 1 mps 738 mmHg 86%
    23:00 +12°C° 0.1 mm 1 mps 738 mmHg 86%

    Tomorrow, 30 May, Saturday

    Time Temperature Precipitation Wind Pressure Humidity
    00:00 +12°C° 0.1 mm 1 mps 738 mmHg 87%
    01:00 +11°C° 0.1 mm 0 mps 738 mmHg 87%
    02:00 +11°C° 0 mm 0 mps 738 mmHg 87%
    03:00 +10°C° 0 mm 0 mps 738 mmHg 87%
    04:00 +10°C° 0 mm 0 mps 738 mmHg 87%
    05:00 +12°C° 0 mm 0 mps 737 mmHg 82%
    06:00 +13°C° 0 mm 0 mps 737 mmHg 76%
    07:00 +15°C° 0 mm 0 mps 737 mmHg 71%
    08:00 +17°C° 0 mm 0 mps 737 mmHg 63%
    09:00 +21°C° 0 mm 1 mps 737 mmHg 55%
    10:00 +23°C° 0 mm 1 mps 736 mmHg 47%
    11:00 +23°C° 0.1 mm 1 mps 736 mmHg 46%
    12:00 +24°C° 0.1 mm 1 mps 736 mmHg 45%
    13:00 +24°C° 0.1 mm 1 mps 736 mmHg 44%
    14:00 +24°C° 0.3 mm 1 mps 735 mmHg 48%
    15:00 +23°C° 0.3 mm 1 mps 735 mmHg 52%
    16:00 +23°C° 0.3 mm 2 mps 735 mmHg 57%
    17:00 +21°C° 0.6 mm 1 mps 735 mmHg 66%
    18:00 +20°C° 0.6 mm 1 mps 735 mmHg 75%
    19:00 +18°C° 0.6 mm 1 mps 735 mmHg 85%
    20:00 +16°C° 0.4 mm 1 mps 735 mmHg 87%
    21:00 +15°C° 0.4 mm 1 mps 736 mmHg 89%
    22:00 +14°C° 0.4 mm 1 mps 736 mmHg 90%
    23:00 +13°C° 0.1 mm 1 mps 736 mmHg 91%

    Day after tomorrow, 31 May, Sunday

    Time Temperature Precipitation Wind Pressure Humidity
    00:00 +13°C° 0.1 mm 1 mps 736 mmHg 91%
    01:00 +12°C° 0.1 mm 1 mps 736 mmHg 92%
    02:00 +12°C° 0.2 mm 1 mps 736 mmHg 92%
    03:00 +12°C° 0.2 mm 1 mps 736 mmHg 92%
    04:00 +12°C° 0.2 mm 1 mps 736 mmHg 92%
    05:00 +12°C° 0.1 mm 0 mps 736 mmHg 88%
    06:00 +13°C° 0.1 mm 0 mps 736 mmHg 84%
    07:00 +14°C° 0.1 mm 0 mps 736 mmHg 81%
    08:00 +18°C° 0 mm 1 mps 736 mmHg 73%
    09:00 +19°C° 0 mm 1 mps 736 mmHg 66%
    10:00 +21°C° 0 mm 1 mps 736 mmHg 58%
    11:00 +22°C° 0.1 mm 1 mps 736 mmHg 56%
    12:00 +23°C° 0.1 mm 1 mps 736 mmHg 53%
    13:00 +23°C° 0.1 mm 1 mps 735 mmHg 51%
    14:00 +23°C° 0.2 mm 1 mps 735 mmHg 52%
    15:00 +23°C° 0.2 mm 2 mps 735 mmHg 54%
    16:00 +23°C° 0.2 mm 2 mps 735 mmHg 55%
    17:00 +22°C° 0.1 mm 1 mps 735 mmHg 62%
    18:00 +21°C° 0.1 mm 1 mps 735 mmHg 70%
    19:00 +20°C° 0.1 mm 1 mps 735 mmHg 77%
    20:00 +18°C° 0 mm 1 mps 736 mmHg 80%
    21:00 +15°C° 0 mm 1 mps 736 mmHg 83%
    22:00 +14°C° 0 mm 1 mps 737 mmHg 85%
    23:00 +13°C° 0 mm 1 mps 737 mmHg 86%

    1 June, Monday

    Time Temperature Precipitation Wind Pressure Humidity
    00:00 +13°C° 0 mm 1 mps 737 mmHg 86%
    01:00 +12°C° 0 mm 1 mps 737 mmHg 86%
    02:00 +12°C° 0 mm 1 mps 737 mmHg 86%
    03:00 +12°C° 0 mm 1 mps 737 mmHg 86%
    04:00 +11°C° 0 mm 1 mps 737 mmHg 85%
    05:00 +13°C° 0 mm 1 mps 737 mmHg 78%
    06:00 +14°C° 0 mm 0 mps 737 mmHg 71%
    07:00 +16°C° 0 mm 0 mps 737 mmHg 64%
    08:00 +19°C° 0 mm 0 mps 737 mmHg 56%
    09:00 +23°C° 0 mm 1 mps 737 mmHg 49%
    10:00 +25°C° 0 mm 1 mps 737 mmHg 42%
    11:00 +26°C° 0 mm 1 mps 736 mmHg 41%
    12:00 +27°C° 0 mm 1 mps 736 mmHg 39%
    13:00 +27°C° 0 mm 1 mps 736 mmHg 38%
    14:00 +27°C° 0.1 mm 2 mps 736 mmHg 41%
    15:00 +27°C° 0.1 mm 2 mps 736 mmHg 44%
    16:00 +26°C° 0.1 mm 2 mps 736 mmHg 48%
    17:00 +25°C° 0.3 mm 2 mps 736 mmHg 59%
    18:00 +23°C° 0.3 mm 1 mps 736 mmHg 71%
    19:00 +21°C° 0.3 mm 1 mps 736 mmHg 82%
    20:00 +20°C° 0.1 mm 1 mps 736 mmHg 86%
    21:00 +18°C° 0.1 mm 1 mps 737 mmHg 90%
    22:00 +16°C° 0.1 mm 1 mps 737 mmHg 94%
    23:00 +15°C° 0 mm 1 mps 737 mmHg 94%

    2 June, Tuesday

    Time Temperature Precipitation Wind Pressure Humidity
    00:00 +15°C° 0 mm 1 mps 737 mmHg 94%
    01:00 +14°C° 0 mm 0 mps 737 mmHg 93%
    02:00 +15°C° 0 mm 1 mps 737 mmHg 92%
    03:00 +15°C° 0 mm 1 mps 737 mmHg 91%
    04:00 +15°C° 0 mm 1 mps 736 mmHg 90%
    05:00 +15°C° 0 mm 0 mps 736 mmHg 85%
    06:00 +16°C° 0 mm 0 mps 736 mmHg 80%
    07:00 +18°C° 0 mm 0 mps 736 mmHg 75%
    08:00 +20°C° 0 mm 0 mps 736 mmHg 65%
    09:00 +24°C° 0 mm 1 mps 736 mmHg 54%
    10:00 +26°C° 0 mm 1 mps 736 mmHg 44%
    11:00 +27°C° 0 mm 1 mps 736 mmHg 42%
    12:00 +28°C° 0 mm 2 mps 735 mmHg 41%
    13:00 +28°C° 0 mm 2 mps 735 mmHg 39%
    14:00 +28°C° 0.2 mm 2 mps 734 mmHg 44%
    15:00 +27°C° 0.2 mm 2 mps 734 mmHg 49%
    16:00 +26°C° 0.2 mm 2 mps 734 mmHg 54%
    17:00 +25°C° 0.8 mm 2 mps 733 mmHg 64%
    18:00 +23°C° 0.8 mm 1 mps 733 mmHg 74%
    19:00 +22°C° 0.8 mm 1 mps 733 mmHg 84%
    20:00 +20°C° 0.4 mm 1 mps 733 mmHg 87%
    21:00 +18°C° 0.4 mm 1 mps 733 mmHg 90%
    22:00 +16°C° 0.4 mm 1 mps 733 mmHg 93%
    23:00 +15°C° 0.1 mm 0 mps 733 mmHg 93%

    3 June, Wednesday

    Time Temperature Precipitation Wind Pressure Humidity
    00:00 +15°C° 0.1 mm 0 mps 733 mmHg 93%
    01:00 +15°C° 0.1 mm 0 mps 732 mmHg 94%
    02:00 +15°C° 0 mm 0 mps 732 mmHg 94%
    03:00 +15°C° 0 mm 0 mps 732 mmHg 94%
    04:00 +15°C° 0 mm 0 mps 731 mmHg 94%
    05:00 +16°C° 0 mm 0 mps 731 mmHg 92%
    06:00 +16°C° 0 mm 0 mps 731 mmHg 91%
    07:00 +17°C° 0 mm 0 mps 730 mmHg 89%
    08:00 +18°C° 0.1 mm 0 mps 730 mmHg 83%
    09:00 +22°C° 0.1 mm 1 mps 730 mmHg 76%
    10:00 +23°C° 0.1 mm 1 mps 730 mmHg 70%
    11:00 +24°C° 0.4 mm 2 mps 729 mmHg 70%
    12:00 +24°C° 0.4 mm 2 mps 729 mmHg 70%
    13:00 +24°C° 0.4 mm 2 mps 729 mmHg 70%
    14:00 +24°C° 0.6 mm 2 mps 728 mmHg 73%
    15:00 +23°C° 0.6 mm 2 mps 728 mmHg 77%
    16:00 +23°C° 0.6 mm 2 mps 727 mmHg 80%
    17:00 +21°C° 0.5 mm 2 mps 727 mmHg 85%
    18:00 +21°C° 0.5 mm 1 mps 727 mmHg 89%
    19:00 +20°C° 0.5 mm 1 mps 727 mmHg 93%
    20:00 +19°C° 0.3 mm 1 mps 727 mmHg 94%
    21:00 +19°C° 0.3 mm 1 mps 728 mmHg 96%
    22:00 +16°C° 0.3 mm 0 mps 728 mmHg 97%
    23:00 +16°C° 0.1 mm 0 mps 728 mmHg 97%
    Show more